Location: Peterborough
(44.3091°N, 78.3197°W)
Time: 04:00:15
(UTC-04:00)

Tiros 1 - Pass Details

Date: 05 April 2023
Orbit: 627 x 661 km, 48.4° (Epoch: 09 June)

Event Time Altitude Azimuth Distance (km) Brightness Sun altitude
Rises 07:19:03 0° 292° (WNW) 2,990 10.0 4.8°
Reaches altitude 10° 07:21:24 10° 292° (WNW) 2,078 9.2 5.2°
Maximum altitude 07:26:13 83° 205° (SSW) 670 7.4 6.1°
Drops below altitude 10° 07:31:00 10° 118° (ESE) 2,069 11.0 6.9°
Sets 07:33:20 0° 118° (ESE) 2,976 11.8 7.3°
